Hourly Data Report for September 11, 2017

All times are specified in Local Standard Time (LST). Add 1 hour to adjust for Daylight Saving Time where and when it is observed.

KITCHENER/WATERLOO
ONTARIO

43°27'39.000" N
80°22'43.000" W
321.60 m
6144239
71368
YKF

Download Data

Hourly Data (September 2017)
Hourly Data Report for September 11, 2017
Temp Definition
°C
Dew Point Temp Definition
°C
Rel Hum Definition
%
Wind Dir Definition
10's deg

Wind Spd Definition
km/h
Visibility Definition
km
Stn Press Definition
kPa
Hmdx Definition


Wind Chill Definition


Weather Definition


TIME
00:00 Legend Double Dagger 6.8 6.5 98 35 4 16.1 99.18     LegendNANA
01:00 Legend Double Dagger 6.4 6.1 98 LegendMM 4 14.5 99.13     LegendNANA
02:00 Legend Double Dagger 5.9 5.6 98 30 4 12.9 99.09     LegendNANA
03:00 Legend Double Dagger 5.2 4.9 98 34 4 11.3 99.00     LegendNANA
04:00 Legend Double Dagger 4.4 4.3 99 30 9 1.2 98.97     Fog
05:00 Legend Double Dagger 4.7 4.6 99 29 5 6.4 99.01     Fog
06:00 Legend Double Dagger 4.6 4.5 99 34 5 6.4 99.05     Fog
07:00 Legend Double Dagger 6.2 6.1 99   0 12.9 99.10     LegendNANA
08:00 Legend Double Dagger 10.2 8.5 89 34 5 16.1 99.10     LegendNANA
09:00 Legend Double Dagger 15.0 9.2 68 7 5 16.1 99.04     LegendNANA
10:00 Legend Double Dagger 17.2 10.1 63 13 5 16.1 99.00     LegendNANA
11:00 Legend Double Dagger 19.3 8.4 49 14 8 16.1 98.91     LegendNANA
12:00 Legend Double Dagger 20.5 7.4 42 LegendMM 8 16.1 98.85     LegendNANA
13:00 Legend Double Dagger 21.3 5.2 35 11 5 14.5 98.77     LegendNANA
14:00 Legend Double Dagger 21.9 5.1 33 16 5 9.7 98.70     Haze
15:00 Legend Double Dagger 22.3 7.2 37 13 9 8.1 98.61     Haze
16:00 Legend Double Dagger 21.7 7.3 39 LegendMM 4 16.1 98.52     LegendNANA
17:00 Legend Double Dagger 21.1 8.6 44 12 8 16.1 98.48     LegendNANA
18:00 Legend Double Dagger 18.8 10.8 59 15 5 16.1 98.45     LegendNANA
19:00 Legend Double Dagger 13.8 10.6 81 11 5 12.9 98.39     LegendNANA
20:00 Legend Double Dagger 12.4 10.2 86 12 4 16.1 98.41     LegendNANA
21:00 Legend Double Dagger 11.8 10.1 89 14 8 16.1 98.37     LegendNANA
22:00 Legend Double Dagger 9.4 8.8 96   0 11.3 98.34     LegendNANA
23:00 Legend Double Dagger 8.8 8.5 98 36 5 1.2 98.30     Fog

Notes on Data Quality.

Legend

  • E = Estimated
  • M = Missing
  • NA = Not Available
  • ‡ = Partner data that is not subject to review by the National Climate Archives
Date modified: